Location: Unspecified
(29.9680°N, 0.0000°E)
Time: 13:19:17
(UTC+00:00)

Explorer 7 - Pass Details

Date: 03 July 2019
Orbit: 485 x 680 km, 50.3° (Epoch: 24 August)

Event Time Altitude Azimuth Distance (km) Brightness Sun altitude
Rises 02:50:49 0° 206° (SSW) 2,535 - -23.6°
Reaches altitude 10° 02:53:04 10° 197° (SSW) 1,669 - -23.3°
Maximum altitude 02:56:32 35° 130° (SE) 812 - -22.8°
Exits shadow 02:56:40 35° 125° (SE) 815 7.7 -22.8°
Drops below altitude 10° 03:00:08 10° 63° (ENE) 1,739 10.3 -22.3°
Sets 03:02:30 0° 55° (NE) 2,660 11.7 -21.9°
